Red Wing, WI

5:53 PM CDT on April 28, 2017 (GMT -0500)
Red Wing Municipal

Weather History for KRGK - March, 2013

Change the Weather History Date:

Saturday, March 2, 2013

  Actual Average Record
Temperature  
Mean Temperature 14 °F -  
Max Temperature 28 °F 29 °F 42 °F (2008)
Min Temperature 1 °F 14 °F -16 °F (2014)
Degree Days  
Heating Degree Days 50    
Moisture  
Dew Point 8 °F    
Average Humidity 69    
Maximum Humidity 92    
Minimum Humidity 34    
Precipitation  
Precipitation 0.00 in - - ()
Sea Level Pressure  
Sea Level Pressure 30.27 in    
Wind  
Wind Speed 1 mph (NNE)    
Max Wind Speed 6 mph    
Max Gust Speed -    
Visibility 10 miles    
Events      
Averages and records for this station are not official NWS values.
T = Trace of Precipitation, MM = Missing Value Source: NWS Daily Summary

Daily Weather History Graph

Daily Weather History Graph

Search for Another Location

Airport or City:

Trip Planner

Search our weather history database for the weather conditions in past years. The results will help you decide how hot, cold, wet, or windy it might be!

Date:

Astronomy

Mar. 02, 2013 Rise Set
Actual Time 6:45 AM CST 5:59 PM CST
Civil Twilight 6:16 AM CST 6:28 PM CST
Nautical Twilight 5:42 AM CST 7:02 PM CST
Astronomical Twilight 5:08 AM CST 7:36 PM CST
Moon 11:55 PM CST (3/2) 8:59 AM CST (3/2)
Length of Visible Light 12h 12m
Length of Day
11h 14m
Waning Gibbous, 74% of the Moon is Illuminated
Mar 2
Waning Gibbous
Mar 4
Last Quarter
Mar 11
New
Mar 19
First Quarter
Mar 27
Full

Hourly Weather History & Observations

Time (CST) Temp. Windchill Dew Point Humidity Pressure Visibility Wind Dir Wind Speed Gust Speed Precip Events Conditions
12:15 AM 17.6 °F - 10.4 °F 73% 30.32 in 10.0 mi Calm Calm - N/A   Clear
12:35 AM 12.2 °F - 8.6 °F 85% 30.32 in 10.0 mi Calm Calm - N/A   Clear
12:55 AM 12.2 °F - 8.6 °F 85% 30.31 in 10.0 mi Calm Calm - N/A   Clear
1:15 AM 10.4 °F - 6.8 °F 85% 30.32 in 10.0 mi Calm Calm - N/A   Clear
1:35 AM 10.4 °F - 6.8 °F 85% 30.32 in 10.0 mi Calm Calm - N/A   Clear
1:55 AM 10.4 °F 2.2 °F 8.6 °F 92% 30.31 in 10.0 mi North 4.6 mph - N/A   Clear
2:15 AM 10.4 °F 4.0 °F 6.8 °F 85% 30.31 in 10.0 mi NNE 3.5 mph - N/A   Clear
2:35 AM 8.6 °F - 6.8 °F 92% 30.31 in 10.0 mi Calm Calm - N/A   Clear
2:54 AM 8.6 °F - 6.8 °F 92% 30.31 in 10.0 mi Calm Calm - N/A   Clear
3:15 AM 8.6 °F - 6.8 °F 92% 30.31 in 10.0 mi Calm Calm - N/A   Clear
3:35 AM 6.8 °F - 5.0 °F 92% 30.31 in 10.0 mi Calm Calm - N/A   Clear
3:55 AM 6.8 °F - 5.0 °F 92% 30.31 in 10.0 mi Calm Calm - N/A   Clear
4:15 AM 8.6 °F - 6.8 °F 92% 30.31 in 10.0 mi Calm Calm - N/A   Clear
4:35 AM 6.8 °F - 3.2 °F 85% 30.32 in 10.0 mi Calm Calm - N/A   Clear
4:55 AM 6.8 °F - 3.2 °F 85% 30.32 in 10.0 mi Calm Calm - N/A   Clear
5:14 AM 6.8 °F - 3.2 °F 85% 30.32 in 10.0 mi Calm Calm - N/A   Clear
5:35 AM 5.0 °F - 1.4 °F 85% 30.32 in 10.0 mi Calm Calm - N/A   Clear
5:55 AM 5.0 °F - 1.4 °F 85% 30.32 in 10.0 mi Calm Calm - N/A   Clear
6:15 AM 5.0 °F - 1.4 °F 85% 30.32 in 10.0 mi Calm Calm - N/A   Clear
6:35 AM 5.0 °F - 1.4 °F 85% 30.32 in 10.0 mi Calm Calm - N/A   Clear
6:55 AM 1.4 °F - -0.4 °F 92% 30.32 in 10.0 mi Calm Calm - N/A   Clear
7:15 AM 3.2 °F - 1.4 °F 92% 30.32 in 10.0 mi Calm Calm - N/A   Clear
7:35 AM 6.8 °F - 3.2 °F 85% 30.33 in 10.0 mi Calm Calm - N/A   Clear
7:55 AM 10.4 °F - 6.8 °F 85% 30.34 in 10.0 mi Calm Calm - N/A   Clear
8:15 AM 12.2 °F - 10.4 °F 92% 30.34 in 10.0 mi Calm Calm - N/A   Clear
8:34 AM 12.2 °F - 10.4 °F 92% 30.33 in 10.0 mi Calm Calm - N/A   Clear
8:55 AM 15.8 °F - 10.4 °F 79% 30.33 in 10.0 mi Calm Calm - N/A   Clear
9:15 AM 17.6 °F - 10.4 °F 73% 30.33 in 10.0 mi Calm Calm - N/A   Clear
9:35 AM 19.4 °F - 10.4 °F 68% 30.32 in 10.0 mi Calm Calm - N/A   Clear
9:55 AM 19.4 °F - 10.4 °F 68% 30.32 in 10.0 mi Calm Calm - N/A   Clear
10:15 AM 21.2 °F - 10.4 °F 63% 30.32 in 10.0 mi Calm Calm - N/A   Clear
10:35 AM 21.2 °F 16.4 °F 8.6 °F 58% 30.31 in 10.0 mi ENE 3.5 mph - N/A   Clear
10:54 AM 23.0 °F 15.8 °F 8.6 °F 54% 30.30 in 10.0 mi East 5.8 mph - N/A   Clear
11:15 AM 23.0 °F - 10.4 °F 59% 30.30 in 10.0 mi Calm Calm - N/A   Clear
11:35 AM 24.8 °F - 8.6 °F 50% 30.30 in 10.0 mi Calm Calm - N/A   Clear
11:55 AM 24.8 °F 20.5 °F 10.4 °F 54% 30.29 in 10.0 mi East 3.5 mph - N/A   Clear
12:15 PM 26.6 °F 20.0 °F 8.6 °F 47% 30.28 in 10.0 mi NNE 5.8 mph - N/A   Clear
12:35 PM 26.6 °F - 10.4 °F 51% 30.27 in 10.0 mi Calm Calm - N/A   Clear
12:55 PM 26.6 °F 22.6 °F 8.6 °F 47% 30.26 in 10.0 mi ESE 3.5 mph - N/A   Clear
1:15 PM 26.6 °F 20.0 °F 10.4 °F 51% 30.25 in 10.0 mi SSW 5.8 mph - N/A   Clear
1:35 PM 28.4 °F - 8.6 °F 43% 30.25 in 10.0 mi Calm Calm - N/A   Clear
1:55 PM 28.4 °F - 8.6 °F 43% 30.24 in 10.0 mi Calm Calm - N/A   Clear
2:15 PM 28.4 °F 24.6 °F 10.4 °F 47% 30.24 in 10.0 mi NNE 3.5 mph - N/A   Clear
2:35 PM 28.4 °F - 8.6 °F 43% 30.24 in 10.0 mi Calm Calm - N/A   Clear
2:55 PM 28.4 °F 23.3 °F 6.8 °F 40% 30.23 in 10.0 mi North 4.6 mph - N/A   Clear
3:15 PM 28.4 °F 24.6 °F 3.2 °F 34% 30.23 in 10.0 mi North 3.5 mph - N/A   Clear
3:35 PM 28.4 °F 24.6 °F 8.6 °F 43% 30.23 in 10.0 mi NE 3.5 mph - N/A   Clear
3:55 PM 28.4 °F - 8.6 °F 43% 30.23 in 10.0 mi Calm Calm - N/A   Clear
4:15 PM 28.4 °F - 8.6 °F 43% 30.22 in 10.0 mi Calm Calm - N/A   Clear
4:35 PM 28.4 °F - 6.8 °F 40% 30.22 in 10.0 mi Calm Calm - N/A   Clear
4:54 PM 28.4 °F 24.6 °F 6.8 °F 40% 30.22 in 10.0 mi North 3.5 mph - N/A   Clear
5:35 PM 26.6 °F 22.6 °F 6.8 °F 43% 30.22 in 10.0 mi North 3.5 mph - N/A   Clear
5:54 PM 26.6 °F - 8.6 °F 47% 30.22 in 10.0 mi Calm Calm - N/A   Clear
6:15 PM 24.8 °F 20.5 °F 8.6 °F 50% 30.21 in 10.0 mi NE 3.5 mph - N/A   Clear
6:54 PM 23.0 °F - 8.6 °F 54% 30.22 in 10.0 mi Calm Calm - N/A   Scattered Clouds
7:15 PM 21.2 °F - 8.6 °F 58% 30.22 in 10.0 mi Calm Calm - N/A   Clear
7:35 PM 21.2 °F - 10.4 °F 63% 30.21 in 10.0 mi Calm Calm - N/A   Scattered Clouds
7:55 PM 19.4 °F - 10.4 °F 68% 30.21 in 10.0 mi Calm Calm - N/A   Mostly Cloudy
8:15 PM 19.4 °F - 10.4 °F 68% 30.21 in 10.0 mi Calm Calm - N/A   Overcast
8:35 PM 19.4 °F - 10.4 °F 68% 30.20 in 10.0 mi Calm Calm - N/A   Overcast
8:55 PM 19.4 °F - 10.4 °F 68% 30.19 in 10.0 mi Calm Calm - N/A   Overcast
9:14 PM 19.4 °F - 10.4 °F 68% 30.19 in 10.0 mi Calm Calm - N/A   Mostly Cloudy
9:35 PM 19.4 °F - 10.4 °F 68% 30.19 in 10.0 mi Calm Calm - N/A   Mostly Cloudy
9:55 PM 19.4 °F - 10.4 °F 68% 30.19 in 10.0 mi Calm Calm - N/A   Overcast
10:15 PM 17.6 °F - 10.4 °F 73% 30.19 in 10.0 mi Calm Calm - N/A   Overcast
10:35 PM 17.6 °F - 10.4 °F 73% 30.18 in 10.0 mi Calm Calm - N/A   Overcast
10:55 PM 17.6 °F - 10.4 °F 73% 30.18 in 5.0 mi Calm Calm - N/A   Haze
11:15 PM 17.6 °F - 10.4 °F 73% 30.17 in 10.0 mi Calm Calm - N/A   Mostly Cloudy
11:35 PM 15.8 °F - 10.4 °F 79% 30.17 in 10.0 mi Calm Calm - N/A   Mostly Cloudy
11:55 PM 15.8 °F - 10.4 °F 79% 30.18 in 10.0 mi Calm Calm - N/A   Scattered Clouds